| time (UTC) | temp F | wind direction | speed MPH | gust MPH | rain 1hr in | rain 24hr in | rain mn in | humidity % | barometer mb |
| 20260506155438 | 48 | 294 | 9.0 | 12.0 | 0.00 | 0.00 | 0.00 | 58 | 1014.0 |
| 20260506153605 | 50 | 278 | 10.0 | 15.0 | 0.00 | 0.00 | 0.00 | 57 | 1013.7 |
| 20260506153102 | 50 | 238 | 9.0 | 14.0 | 0.00 | 0.00 | 0.00 | 57 | 1013.7 |
| 20260506152559 | 48 | 317 | 6.0 | 9.0 | 0.00 | 0.00 | 0.00 | 58 | 1013.8 |
| 20260506152057 | 49 | 310 | 12.0 | 24.0 | 0.00 | 0.00 | 0.00 | 58 | 1013.9 |
| 20260506151555 | 50 | 236 | 4.0 | 10.0 | 0.00 | 0.00 | 0.00 | 56 | 1013.8 |
| 20260506151052 | 49 | 270 | 8.0 | 14.0 | 0.00 | 0.00 | 0.00 | 55 | 1013.8 |
| 20260506150548 | 49 | 272 | 4.0 | 15.0 | 0.00 | 0.00 | 0.00 | 56 | 1013.7 |
| 20260506150045 | 48 | 232 | 8.0 | 9.0 | 0.00 | 0.00 | 0.00 | 57 | 1013.6 |
| 20260506145542 | 47 | 225 | 2.0 | 9.0 | 0.00 | 0.00 | 0.00 | 63 | 1013.7 |
| 20260506145039 | 49 | 248 | 6.0 | 7.0 | 0.00 | 0.00 | 0.00 | 63 | 1013.5 |
| 20260506144536 | 49 | 236 | 2.0 | 5.0 | 0.00 | 0.00 | 0.00 | 65 | 1013.5 |
| 20260506144033 | 48 | 22 | 7.0 | 9.0 | 0.00 | 0.00 | 0.00 | 67 | 1013.5 |
| 20260506143531 | 49 | 268 | 3.0 | 5.0 | 0.00 | 0.00 | 0.00 | 66 | 1013.5 |
| 20260506143029 | 49 | 232 | 1.0 | 2.0 | 0.00 | 0.00 | 0.00 | 66 | 1013.5 |
| 20260506142526 | 47 | 336 | 7.0 | 9.0 | 0.00 | 0.00 | 0.00 | 69 | 1013.6 |
| 20260506142025 | 47 | 347 | 8.0 | 10.0 | 0.00 | 0.00 | 0.00 | 69 | 1013.4 |
| 20260506141522 | 47 | 61 | 3.0 | 5.0 | 0.00 | 0.00 | 0.00 | 70 | 1013.3 |
| 20260506141020 | 47 | 283 | 6.0 | 12.0 | 0.00 | 0.00 | 0.00 | 70 | 1013.5 |
| 20260506140517 | 46 | 253 | 3.0 | 7.0 | 0.00 | 0.00 | 0.00 | 70 | 1013.4 |
| 20260506140015 | 45 | 257 | 2.0 | 9.0 | 0.00 | 0.00 | 0.00 | 72 | 1013.3 |
| 20260506135511 | 46 | 333 | 6.0 | 10.0 | 0.00 | 0.00 | 0.00 | 71 | 1013.2 |
| 20260506135007 | 46 | 271 | 2.0 | 7.0 | 0.00 | 0.00 | 0.00 | 71 | 1013.2 |
| 20260506134504 | 46 | 254 | 2.0 | 9.0 | 0.00 | 0.00 | 0.00 | 71 | 1013.3 |
| 20260506134000 | 45 | 309 | 4.0 | 12.0 | 0.00 | 0.00 | 0.00 | 72 | 1013.3 |
| 20260506133457 | 46 | 247 | 1.0 | 9.0 | 0.00 | 0.00 | 0.00 | 71 | 1013.0 |
| 20260506132954 | 47 | 241 | 5.0 | 10.0 | 0.00 | 0.00 | 0.00 | 71 | 1013.0 |
| 20260506132451 | 46 | 276 | 7.0 | 14.0 | 0.00 | 0.00 | 0.00 | 73 | 1012.8 |
| 20260506131948 | 47 | 244 | 2.0 | 10.0 | 0.00 | 0.00 | 0.00 | 74 | 1012.6 |
| 20260506131445 | 45 | 288 | 8.0 | 10.0 | 0.00 | 0.00 | 0.00 | 77 | 1012.5 |
| 20260506130942 | 46 | 296 | 6.0 | 12.0 | 0.00 | 0.00 | 0.00 | 76 | 1012.5 |
| 20260506130439 | 46 | 272 | 4.0 | 7.0 | 0.00 | 0.00 | 0.00 | 78 | 1012.5 |
| 20260506125936 | 45 | 253 | 4.0 | 9.0 | 0.00 | 0.00 | 0.00 | 80 | 1012.4 |
| 20260506125435 | 46 | 306 | 10.0 | 14.0 | 0.00 | 0.00 | 0.00 | 80 | 1012.5 |
| 20260506124932 | 45 | 266 | 4.0 | 10.0 | 0.00 | 0.00 | 0.00 | 81 | 1012.4 |
| 20260506124430 | 46 | 269 | 4.0 | 9.0 | 0.00 | 0.00 | 0.00 | 79 | 1012.4 |
| 20260506123927 | 45 | 282 | 3.0 | 9.0 | 0.00 | 0.00 | 0.00 | 80 | 1011.9 |
| 20260506123425 | 46 | 277 | 8.0 | 10.0 | 0.00 | 0.00 | 0.00 | 79 | 1012.2 |
| 20260506122922 | 44 | 262 | 5.0 | 17.0 | 0.00 | 0.00 | 0.00 | 81 | 1012.2 |
| 20260506122419 | 45 | 285 | 7.0 | 10.0 | 0.00 | 0.00 | 0.00 | 81 | 1012.1 |
| 20260506121918 | 45 | 349 | 7.0 | 9.0 | 0.00 | 0.00 | 0.00 | 81 | 1012.0 |
| 20260506121414 | 45 | 286 | 4.0 | 5.0 | 0.00 | 0.00 | 0.00 | 80 | 1011.9 |
| 20260506120911 | 44 | 249 | 5.0 | 5.0 | 0.00 | 0.00 | 0.00 | 81 | 1011.7 |
| 20260506120409 | 44 | 251 | 5.0 | 5.0 | 0.00 | 0.00 | 0.00 | 81 | 1011.7 |
| 20260506115906 | 44 | 232 | 0.0 | 5.0 | 0.00 | 0.00 | 0.00 | 80 | 1011.8 |
| 20260506115404 | 44 | 270 | 7.0 | 9.0 | 0.00 | 0.00 | 0.00 | 79 | 1011.7 |
| 20260506114902 | 44 | 238 | 3.0 | 5.0 | 0.00 | 0.00 | 0.00 | 79 | 1011.6 |
| 20260506114359 | 44 | 232 | 2.0 | 9.0 | 0.00 | 0.00 | 0.00 | 79 | 1011.6 |
| 20260506113858 | 43 | 232 | 1.0 | 3.0 | 0.00 | 0.00 | 0.00 | 80 | 1011.6 |
| 20260506113355 | 42 | 256 | 3.0 | 5.0 | 0.00 | 0.00 | 0.00 | 80 | 1011.6 |
| 20260506112851 | 42 | 239 | 2.0 | 3.0 | 0.00 | 0.00 | 0.00 | 80 | 1011.6 |
| 20260506112348 | 42 | 239 | 2.0 | 3.0 | 0.00 | 0.00 | 0.00 | 80 | 1011.6 |
| 20260506111846 | 42 | 239 | 2.0 | 3.0 | 0.00 | 0.00 | 0.00 | 80 | 1011.5 |
| 20260506111344 | 42 | 246 | 1.0 | 3.0 | 0.00 | 0.00 | 0.00 | 80 | 1011.2 |
| 20260506110841 | 42 | 241 | 1.0 | 3.0 | 0.00 | 0.00 | 0.00 | 80 | 1011.2 |
| 20260506110338 | 42 | 238 | 2.0 | 2.0 | 0.00 | 0.00 | 0.00 | 80 | 1011.3 |
| 20260506105835 | 42 | 236 | 0.0 | 3.0 | 0.00 | 0.00 | 0.00 | 79 | 1010.9 |
| 20260506105331 | 42 | 260 | 2.0 | 3.0 | 0.00 | 0.00 | 0.00 | 79 | 1011.0 |
| 20260506104829 | 42 | 238 | 1.0 | 2.0 | 0.00 | 0.00 | 0.00 | 78 | 1010.9 |
| 20260506104327 | 42 | 236 | 1.0 | 3.0 | 0.00 | 0.00 | 0.00 | 78 | 1010.9 |
| 20260506103824 | 42 | 236 | 0.0 | 2.0 | 0.00 | 0.00 | 0.00 | 77 | 1010.7 |
| 20260506103321 | 43 | 236 | 0.0 | 2.0 | 0.00 | 0.00 | 0.00 | 76 | 1010.9 |
| 20260506102819 | 43 | 246 | 2.0 | 3.0 | 0.00 | 0.00 | 0.00 | 76 | 1010.8 |
| 20260506102316 | 43 | 234 | 0.0 | 3.0 | 0.00 | 0.00 | 0.00 | 75 | 1010.8 |
| 20260506101814 | 44 | 260 | 2.0 | 5.0 | 0.00 | 0.00 | 0.00 | 74 | 1011.0 |
| 20260506101309 | 44 | 253 | 2.0 | 5.0 | 0.00 | 0.00 | 0.00 | 73 | 1010.9 |
| 20260506100808 | 44 | 265 | 3.0 | 10.0 | 0.00 | 0.00 | 0.00 | 73 | 1010.8 |
| 20260506100306 | 44 | 239 | 0.0 | 5.0 | 0.00 | 0.00 | 0.00 | 72 | 1010.7 |
| 20260506095804 | 44 | 237 | 3.0 | 5.0 | 0.00 | 0.00 | 0.00 | 72 | 1010.6 |
| 20260506095300 | 44 | 233 | 3.0 | 5.0 | 0.00 | 0.00 | 0.00 | 71 | 1010.5 |
| 20260506094757 | 44 | 258 | 4.0 | 5.0 | 0.00 | 0.00 | 0.00 | 72 | 1010.3 |
| 20260506094256 | 44 | 253 | 3.0 | 5.0 | 0.00 | 0.00 | 0.00 | 71 | 1010.2 |
| 20260506093754 | 44 | 235 | 2.0 | 7.0 | 0.00 | 0.00 | 0.00 | 71 | 1010.3 |
| 20260506093250 | 45 | 231 | 3.0 | 3.0 | 0.00 | 0.00 | 0.00 | 70 | 1010.0 |
| 20260506092749 | 45 | 268 | 3.0 | 5.0 | 0.00 | 0.00 | 0.00 | 70 | 1010.0 |
| 20260506092246 | 45 | 268 | 3.0 | 5.0 | 0.00 | 0.00 | 0.00 | 69 | 1010.2 |
| 20260506091743 | 45 | 235 | 0.0 | 3.0 | 0.00 | 0.00 | 0.00 | 69 | 1010.3 |
| 20260506091241 | 45 | 237 | 1.0 | 3.0 | 0.00 | 0.00 | 0.00 | 69 | 1010.3 |
| 20260506090738 | 45 | 248 | 3.0 | 9.0 | 0.00 | 0.00 | 0.00 | 69 | 1010.2 |
| 20260506090235 | 45 | 290 | 3.0 | 5.0 | 0.00 | 0.00 | 0.00 | 68 | 1010.1 |
| 20260506085732 | 45 | 242 | 2.0 | 3.0 | 0.00 | 0.00 | 0.00 | 68 | 1010.2 |
| 20260506085228 | 45 | 237 | 1.0 | 2.0 | 0.00 | 0.00 | 0.00 | 68 | 1010.1 |
| 20260506084725 | 45 | 236 | 2.0 | 2.0 | 0.00 | 0.00 | 0.00 | 68 | 1010.1 |
| 20260506084221 | 45 | 234 | 0.0 | 3.0 | 0.00 | 0.00 | 0.00 | 67 | 1010.0 |
| 20260506083718 | 45 | 236 | 0.0 | 3.0 | 0.00 | 0.00 | 0.00 | 67 | 1010.0 |
| 20260506083216 | 45 | 260 | 6.0 | 7.0 | 0.00 | 0.00 | 0.00 | 67 | 1010.2 |
| 20260506082713 | 45 | 256 | 3.0 | 10.0 | 0.00 | 0.00 | 0.00 | 67 | 1010.1 |
| 20260506082208 | 45 | 239 | 2.0 | 5.0 | 0.00 | 0.00 | 0.00 | 67 | 1010.0 |
| 20260506081706 | 45 | 232 | 1.0 | 2.0 | 0.00 | 0.00 | 0.00 | 67 | 1010.1 |
| 20260506081204 | 45 | 239 | 2.0 | 3.0 | 0.00 | 0.00 | 0.00 | 67 | 1010.2 |
| 20260506080701 | 45 | 249 | 3.0 | 5.0 | 0.00 | 0.00 | 0.00 | 66 | 1010.0 |
| 20260506080158 | 45 | 242 | 0.0 | 2.0 | 0.00 | 0.00 | 0.00 | 66 | 1010.2 |
| 20260506073142 | 46 | 250 | 0.0 | 3.0 | 0.00 | 0.00 | 0.00 | 64 | 1010.1 |
| 20260506072638 | 46 | 261 | 3.0 | 5.0 | 0.00 | 0.00 | 0.00 | 65 | 1009.9 |
| 20260506072137 | 46 | 252 | 6.0 | 10.0 | 0.00 | 0.00 | 0.00 | 64 | 1010.1 |
| 20260506071634 | 46 | 245 | 1.0 | 5.0 | 0.00 | 0.00 | 0.00 | 64 | 1009.9 |
| 20260506071131 | 46 | 229 | 0.0 | 2.0 | 0.00 | 0.00 | 0.00 | 64 | 1009.8 |
| 20260506070628 | 46 | 235 | 3.0 | 3.0 | 0.00 | 0.00 | 0.00 | 64 | 1010.1 |
| 20260506070125 | 46 | 246 | 5.0 | 7.0 | 0.00 | 0.00 | 0.00 | 63 | 1010.0 |
| 20260506062057 | 47 | 236 | 2.0 | 3.0 | 0.00 | 0.00 | 0.00 | 64 | 1010.0 |
| 20260506061552 | 47 | 262 | 2.0 | 3.0 | 0.00 | 0.00 | 0.00 | 64 | 1010.2 |
| 20260506061050 | 47 | 236 | 4.0 | 5.0 | 0.00 | 0.00 | 0.00 | 64 | 1010.3 |
| 20260506060548 | 47 | 221 | 0.0 | 3.0 | 0.00 | 0.00 | 0.00 | 66 | 1010.4 |
| 20260506051017 | 48 | 234 | 0.0 | 2.0 | 0.00 | 0.00 | 0.00 | 64 | 1009.9 |
| 20260506050515 | 48 | 276 | 6.0 | 9.0 | 0.00 | 0.00 | 0.00 | 62 | 1009.8 |
| 20260506045005 | 48 | 243 | 3.0 | 7.0 | 0.00 | 0.00 | 0.00 | 62 | 1010.3 |
| 20260506044503 | 48 | 234 | 2.0 | 5.0 | 0.00 | 0.00 | 0.00 | 63 | 1010.2 |
| 20260506043959 | 48 | 248 | 5.0 | 7.0 | 0.00 | 0.00 | 0.00 | 63 | 1010.2 |
| 20260506043457 | 48 | 240 | 4.0 | 7.0 | 0.00 | 0.00 | 0.00 | 62 | 1010.0 |
| 20260506042955 | 48 | 233 | 1.0 | 3.0 | 0.00 | 0.00 | 0.00 | 62 | 1010.0 |
| 20260506042454 | 48 | 235 | 2.0 | 5.0 | 0.00 | 0.00 | 0.00 | 61 | 1009.7 |
| 20260506041952 | 48 | 236 | 4.0 | 10.0 | 0.00 | 0.00 | 0.00 | 61 | 1009.9 |
| 20260506041450 | 48 | 253 | 5.0 | 9.0 | 0.00 | 0.00 | 0.00 | 61 | 1009.5 |
| 20260506040947 | 48 | 252 | 5.0 | 10.0 | 0.00 | 0.00 | 0.00 | 61 | 1009.9 |
| 20260506040444 | 48 | 246 | 5.0 | 9.0 | 0.00 | 0.00 | 0.00 | 62 | 1010.0 |
| 20260506035940 | 48 | 243 | 4.0 | 9.0 | 0.00 | 0.06 | 0.06 | 64 | 1010.0 |
| 20260506035437 | 48 | 241 | 3.0 | 5.0 | 0.00 | 0.06 | 0.06 | 64 | 1009.8 |
| 20260506034934 | 48 | 257 | 5.0 | 10.0 | 0.00 | 0.06 | 0.06 | 61 | 1010.1 |
| 20260506034431 | 48 | 247 | 3.0 | 9.0 | 0.00 | 0.06 | 0.06 | 61 | 1009.9 |
| 20260506033928 | 48 | 240 | 5.0 | 10.0 | 0.00 | 0.06 | 0.06 | 62 | 1010.1 |
| 20260506033426 | 48 | 232 | 2.0 | 9.0 | 0.00 | 0.06 | 0.06 | 63 | 1009.9 |
| 20260506032922 | 48 | 221 | 0.0 | 2.0 | 0.00 | 0.06 | 0.06 | 62 | 1010.0 |
| 20260506032419 | 48 | 235 | 3.0 | 5.0 | 0.00 | 0.06 | 0.06 | 62 | 1010.2 |
| 20260506031916 | 48 | 230 | 0.0 | 2.0 | 0.00 | 0.06 | 0.06 | 64 | 1010.0 |
| 20260506031413 | 48 | 227 | 0.0 | 0.0 | 0.00 | 0.06 | 0.06 | 63 | 1010.1 |
| 20260506030911 | 48 | 235 | 1.0 | 5.0 | 0.00 | 0.06 | 0.06 | 65 | 1010.3 |
| 20260506030409 | 48 | 235 | 0.0 | 3.0 | 0.00 | 0.06 | 0.06 | 65 | 1009.9 |
| 20260506025905 | 48 | 233 | 7.0 | 12.0 | 0.00 | 0.06 | 0.06 | 61 | 1010.1 |
| 20260506025402 | 48 | 253 | 5.0 | 9.0 | 0.00 | 0.06 | 0.06 | 60 | 1009.9 |
| 20260506024859 | 48 | 228 | 0.0 | 0.0 | 0.00 | 0.06 | 0.06 | 60 | 1010.0 |
| 20260506024356 | 49 | 237 | 2.0 | 2.0 | 0.00 | 0.06 | 0.06 | 60 | 1010.2 |
| 20260506023852 | 49 | 235 | 3.0 | 5.0 | 0.00 | 0.06 | 0.06 | 60 | 1010.2 |
| 20260506023349 | 49 | 234 | 3.0 | 7.0 | 0.00 | 0.06 | 0.06 | 59 | 1010.1 |
| 20260506022846 | 49 | 235 | 0.0 | 5.0 | 0.00 | 0.06 | 0.06 | 61 | 1010.1 |
| 20260506022343 | 49 | 251 | 5.0 | 7.0 | 0.00 | 0.06 | 0.06 | 58 | 1009.9 |
| 20260506021841 | 49 | 228 | 0.0 | 2.0 | 0.00 | 0.06 | 0.06 | 58 | 1010.0 |
| 20260506021338 | 49 | 237 | 1.0 | 3.0 | 0.00 | 0.06 | 0.06 | 59 | 1009.8 |
| 20260506020834 | 49 | 253 | 2.0 | 5.0 | 0.00 | 0.06 | 0.06 | 57 | 1010.0 |
| 20260506020333 | 49 | 234 | 0.0 | 2.0 | 0.00 | 0.06 | 0.06 | 61 | 1009.9 |
| 20260506015830 | 49 | 217 | 1.0 | 3.0 | 0.00 | 0.06 | 0.06 | 58 | 1010.1 |
| 20260506015327 | 49 | 241 | 2.0 | 2.0 | 0.00 | 0.06 | 0.06 | 59 | 1009.9 |
| 20260506014824 | 50 | 237 | 5.0 | 5.0 | 0.00 | 0.06 | 0.06 | 56 | 1009.9 |
| 20260506014321 | 50 | 234 | 1.0 | 5.0 | 0.00 | 0.06 | 0.06 | 57 | 1009.4 |
| 20260506013817 | 50 | 232 | 1.0 | 3.0 | 0.00 | 0.06 | 0.06 | 55 | 1009.5 |
| 20260506013315 | 50 | 260 | 5.0 | 10.0 | 0.00 | 0.06 | 0.06 | 54 | 1009.5 |
| 20260506012811 | 50 | 235 | 0.0 | 7.0 | 0.00 | 0.06 | 0.06 | 57 | 1009.5 |
| 20260506012308 | 50 | 247 | 1.0 | 3.0 | 0.00 | 0.06 | 0.06 | 57 | 1009.4 |
| 20260506011805 | 50 | 216 | 3.0 | 5.0 | 0.00 | 0.06 | 0.06 | 55 | 1009.3 |
| 20260506011302 | 50 | 224 | 0.0 | 0.0 | 0.00 | 0.06 | 0.06 | 55 | 1009.3 |
| 20260506010800 | 50 | 239 | 0.0 | 2.0 | 0.00 | 0.06 | 0.06 | 54 | 1009.3 |
| 20260506010257 | 50 | 276 | 3.0 | 5.0 | 0.00 | 0.06 | 0.06 | 53 | 1009.3 |
| 20260506005754 | 50 | 244 | 1.0 | 3.0 | 0.00 | 0.06 | 0.06 | 53 | 1009.2 |
| 20260506005251 | 50 | 240 | 2.0 | 3.0 | 0.00 | 0.06 | 0.06 | 54 | 1009.3 |
| 20260506004747 | 51 | 243 | 4.0 | 12.0 | 0.00 | 0.06 | 0.06 | 51 | 1009.5 |
| 20260506004245 | 51 | 250 | 0.0 | 5.0 | 0.00 | 0.06 | 0.06 | 53 | 1009.3 |
| 20260506003740 | 51 | 252 | 7.0 | 9.0 | 0.00 | 0.06 | 0.06 | 50 | 1009.3 |
| 20260506003237 | 51 | 233 | 2.0 | 12.0 | 0.00 | 0.06 | 0.06 | 51 | 1009.3 |
| 20260506002733 | 51 | 239 | 3.0 | 9.0 | 0.00 | 0.06 | 0.06 | 51 | 1009.4 |
| 20260506002229 | 51 | 249 | 7.0 | 9.0 | 0.00 | 0.06 | 0.06 | 49 | 1009.3 |
| 20260506001725 | 51 | 266 | 3.0 | 9.0 | 0.00 | 0.06 | 0.06 | 49 | 1009.3 |
| 20260506001223 | 51 | 245 | 3.0 | 12.0 | 0.00 | 0.06 | 0.06 | 49 | 1009.2 |
| 20260506000720 | 51 | 258 | 7.0 | 10.0 | 0.00 | 0.06 | 0.06 | 48 | 1009.1 |
| 20260506000219 | 52 | 245 | 3.0 | 10.0 | 0.00 | 0.06 | 0.06 | 48 | 1009.3 |
| 20260505235714 | 52 | 254 | 5.0 | 10.0 | 0.00 | 0.06 | 0.06 | 48 | 1009.0 |
| 20260505235212 | 52 | 270 | 2.0 | 7.0 | 0.00 | 0.06 | 0.06 | 49 | 1009.2 |
| 20260505234709 | 52 | 240 | 4.0 | 9.0 | 0.00 | 0.06 | 0.06 | 48 | 1008.9 |
| 20260505234206 | 52 | 241 | 3.0 | 5.0 | 0.00 | 0.06 | 0.06 | 48 | 1008.9 |
| 20260505233702 | 52 | 235 | 9.0 | 12.0 | 0.00 | 0.06 | 0.06 | 49 | 1008.8 |
| 20260505233200 | 52 | 224 | 5.0 | 7.0 | 0.00 | 0.06 | 0.06 | 49 | 1008.8 |
| 20260505232658 | 52 | 235 | 3.0 | 5.0 | 0.00 | 0.06 | 0.06 | 49 | 1008.7 |
| 20260505232155 | 53 | 252 | 5.0 | 7.0 | 0.00 | 0.06 | 0.06 | 49 | 1008.7 |
| 20260505231651 | 53 | 292 | 6.0 | 12.0 | 0.00 | 0.06 | 0.06 | 51 | 1008.8 |
| 20260505231150 | 53 | 259 | 7.0 | 10.0 | 0.00 | 0.06 | 0.06 | 52 | 1008.7 |
| 20260505230648 | 53 | 244 | 3.0 | 5.0 | 0.00 | 0.06 | 0.06 | 55 | 1008.6 |
| 20260505230145 | 53 | 226 | 0.0 | 3.0 | 0.00 | 0.06 | 0.06 | 57 | 1008.5 |
| 20260505225640 | 53 | 233 | 3.0 | 7.0 | 0.00 | 0.06 | 0.06 | 56 | 1008.6 |
| 20260505225137 | 53 | 215 | 8.0 | 10.0 | 0.00 | 0.06 | 0.06 | 55 | 1008.6 |
| 20260505224633 | 53 | 225 | 2.0 | 7.0 | 0.00 | 0.06 | 0.06 | 54 | 1008.9 |
| 20260505224131 | 53 | 256 | 4.0 | 12.0 | 0.00 | 0.06 | 0.06 | 56 | 1009.0 |
| 20260505223629 | 53 | 252 | 1.0 | 9.0 | 0.00 | 0.06 | 0.06 | 56 | 1008.9 |
| 20260505223124 | 53 | 241 | 2.0 | 5.0 | 0.00 | 0.06 | 0.06 | 54 | 1008.8 |
| 20260505222621 | 53 | 267 | 6.0 | 9.0 | 0.00 | 0.06 | 0.06 | 53 | 1008.7 |
| 20260505222117 | 53 | 250 | 5.0 | 14.0 | 0.00 | 0.06 | 0.06 | 53 | 1008.8 |
| 20260505221614 | 53 | 271 | 5.0 | 10.0 | 0.00 | 0.06 | 0.06 | 54 | 1008.9 |
| 20260505221111 | 53 | 224 | 4.0 | 5.0 | 0.00 | 0.06 | 0.06 | 55 | 1008.7 |
| 20260505220608 | 53 | 223 | 3.0 | 12.0 | 0.00 | 0.06 | 0.06 | 54 | 1008.8 |
| 20260505220106 | 53 | 232 | 10.0 | 14.0 | 0.00 | 0.06 | 0.06 | 55 | 1008.8 |
| 20260505215603 | 53 | 250 | 5.0 | 10.0 | 0.00 | 0.06 | 0.06 | 57 | 1008.8 |
| 20260505215101 | 53 | 234 | 2.0 | 7.0 | 0.00 | 0.06 | 0.06 | 57 | 1008.8 |
| 20260505214559 | 53 | 294 | 8.0 | 9.0 | 0.00 | 0.06 | 0.06 | 57 | 1008.8 |
| 20260505214056 | 53 | 258 | 9.0 | 12.0 | 0.00 | 0.06 | 0.06 | 56 | 1008.9 |
| 20260505213554 | 53 | 258 | 4.0 | 15.0 | 0.00 | 0.06 | 0.06 | 57 | 1008.8 |
| 20260505213050 | 53 | 237 | 7.0 | 10.0 | 0.00 | 0.06 | 0.06 | 57 | 1008.9 |
| 20260505212546 | 53 | 236 | 2.0 | 12.0 | 0.00 | 0.06 | 0.06 | 58 | 1008.7 |
| 20260505212044 | 54 | 245 | 14.0 | 21.0 | 0.00 | 0.06 | 0.06 | 57 | 1008.7 |
| 20260505211540 | 54 | 337 | 9.0 | 14.0 | 0.00 | 0.06 | 0.06 | 62 | 1008.8 |
| 20260505211037 | 54 | 227 | 0.0 | 3.0 | 0.00 | 0.06 | 0.06 | 65 | 1008.8 |
| 20260505210534 | 54 | 248 | 6.0 | 10.0 | 0.00 | 0.06 | 0.06 | 65 | 1008.9 |
| 20260505210031 | 54 | 247 | 3.0 | 9.0 | 0.00 | 0.06 | 0.06 | 67 | 1008.8 |
| 20260505205529 | 54 | 221 | 1.0 | 9.0 | 0.00 | 0.06 | 0.06 | 67 | 1009.0 |
| 20260505205026 | 54 | 251 | 12.0 | 14.0 | 0.00 | 0.06 | 0.06 | 67 | 1008.9 |
| 20260505204524 | 54 | 290 | 4.0 | 10.0 | 0.00 | 0.06 | 0.06 | 66 | 1008.8 |
| 20260505204021 | 54 | 325 | 2.0 | 5.0 | 0.00 | 0.06 | 0.06 | 66 | 1008.9 |
| 20260505203517 | 54 | 215 | 6.0 | 10.0 | 0.00 | 0.06 | 0.06 | 67 | 1008.8 |
| 20260505203014 | 54 | 289 | 3.0 | 12.0 | 0.00 | 0.06 | 0.06 | 67 | 1009.1 |
| 20260505202510 | 54 | 237 | 2.0 | 10.0 | 0.00 | 0.06 | 0.06 | 66 | 1008.7 |
| 20260505202006 | 53 | 238 | 3.0 | 9.0 | 0.00 | 0.06 | 0.06 | 67 | 1008.7 |
| 20260505201504 | 54 | 225 | 7.0 | 19.0 | 0.00 | 0.06 | 0.06 | 66 | 1008.8 |
| 20260505201001 | 54 | 293 | 2.0 | 9.0 | 0.00 | 0.06 | 0.06 | 65 | 1008.8 |
| 20260505200459 | 54 | 251 | 5.0 | 15.0 | 0.00 | 0.06 | 0.06 | 65 | 1008.7 |
| 20260505195954 | 54 | 150 | 5.0 | 12.0 | 0.00 | 0.06 | 0.06 | 65 | 1009.0 |
| 20260505195451 | 55 | 286 | 3.0 | 14.0 | 0.00 | 0.06 | 0.06 | 65 | 1008.8 |
| 20260505194949 | 54 | 246 | 2.0 | 7.0 | 0.00 | 0.06 | 0.06 | 64 | 1008.8 |
| 20260505194446 | 54 | 195 | 6.0 | 12.0 | 0.00 | 0.06 | 0.06 | 64 | 1008.7 |
| 20260505193946 | 54 | 215 | 3.0 | 7.0 | 0.00 | 0.06 | 0.06 | 65 | 1008.6 |
| 20260505193444 | 55 | 227 | 6.0 | 14.0 | 0.00 | 0.06 | 0.06 | 64 | 1008.8 |
| 20260505192941 | 55 | 197 | 4.0 | 14.0 | 0.00 | 0.06 | 0.06 | 63 | 1008.8 |
| 20260505192440 | 54 | 246 | 3.0 | 10.0 | 0.00 | 0.06 | 0.06 | 63 | 1009.0 |
| 20260505191937 | 54 | 225 | 3.0 | 10.0 | 0.00 | 0.06 | 0.06 | 64 | 1009.0 |
| 20260505191436 | 54 | 305 | 8.0 | 12.0 | 0.00 | 0.06 | 0.06 | 63 | 1009.1 |
| 20260505190932 | 54 | 327 | 4.0 | 12.0 | 0.00 | 0.06 | 0.06 | 64 | 1008.8 |
| 20260505190427 | 54 | 236 | 5.0 | 7.0 | 0.00 | 0.06 | 0.06 | 64 | 1009.0 |
| 20260505185923 | 54 | 250 | 3.0 | 9.0 | 0.00 | 0.06 | 0.06 | 64 | 1009.0 |
| 20260505185420 | 54 | 319 | 10.0 | 19.0 | 0.00 | 0.06 | 0.06 | 63 | 1009.1 |
| 20260505184916 | 54 | 286 | 7.0 | 10.0 | 0.00 | 0.06 | 0.06 | 62 | 1008.8 |
| 20260505184413 | 54 | 263 | 5.0 | 15.0 | 0.00 | 0.06 | 0.06 | 61 | 1008.9 |
| 20260505183910 | 54 | 247 | 5.0 | 14.0 | 0.00 | 0.06 | 0.06 | 61 | 1009.1 |
| 20260505183407 | 55 | 239 | 6.0 | 14.0 | 0.00 | 0.06 | 0.06 | 61 | 1008.8 |
| 20260505182903 | 55 | 261 | 6.0 | 10.0 | 0.00 | 0.06 | 0.06 | 59 | 1008.7 |
| 20260505182400 | 55 | 254 | 10.0 | 26.0 | 0.00 | 0.06 | 0.06 | 59 | 1008.8 |
| 20260505181857 | 55 | 290 | 7.0 | 12.0 | 0.00 | 0.06 | 0.06 | 62 | 1008.6 |
| 20260505181354 | 55 | 224 | 10.0 | 17.0 | 0.00 | 0.06 | 0.06 | 59 | 1008.5 |
| 20260505180851 | 55 | 233 | 5.0 | 9.0 | 0.00 | 0.06 | 0.06 | 64 | 1008.2 |
| 20260505180347 | 56 | 298 | 6.0 | 14.0 | 0.00 | 0.06 | 0.06 | 61 | 1008.3 |
| 20260505175844 | 55 | 232 | 3.0 | 10.0 | 0.00 | 0.06 | 0.06 | 61 | 1008.1 |
| 20260505175340 | 55 | 233 | 11.0 | 12.0 | 0.00 | 0.06 | 0.06 | 63 | 1008.3 |
| 20260505174837 | 55 | 300 | 7.0 | 9.0 | 0.00 | 0.06 | 0.06 | 64 | 1008.0 |
| 20260505174335 | 54 | 263 | 4.0 | 10.0 | 0.00 | 0.06 | 0.06 | 65 | 1008.0 |
| 20260505173830 | 54 | 325 | 8.0 | 12.0 | 0.00 | 0.06 | 0.06 | 67 | 1007.8 |
| 20260505173327 | 54 | 245 | 2.0 | 9.0 | 0.00 | 0.06 | 0.06 | 68 | 1007.9 |
| 20260505172824 | 54 | 239 | 2.0 | 14.0 | 0.00 | 0.06 | 0.06 | 70 | 1008.0 |
| 20260505172322 | 54 | 235 | 2.0 | 9.0 | 0.00 | 0.06 | 0.06 | 73 | 1008.0 |
| 20260505171815 | 53 | 282 | 6.0 | 10.0 | 0.00 | 0.06 | 0.06 | 74 | 1008.1 |
| 20260505171313 | 53 | 244 | 0.0 | 5.0 | 0.00 | 0.06 | 0.06 | 75 | 1008.0 |
| 20260505170809 | 53 | 238 | 11.0 | 15.0 | 0.00 | 0.06 | 0.06 | 75 | 1007.8 |
| 20260505170306 | 53 | 288 | 7.0 | 12.0 | 0.00 | 0.06 | 0.06 | 75 | 1007.9 |
| 20260505165801 | 53 | 223 | 2.0 | 14.0 | 0.00 | 0.06 | 0.06 | 78 | 1008.1 |
| 20260505165257 | 53 | 311 | 11.0 | 15.0 | 0.00 | 0.06 | 0.06 | 78 | 1008.1 |
| 20260505164753 | 52 | 240 | 9.0 | 24.0 | 0.00 | 0.06 | 0.06 | 79 | 1008.1 |
| 20260505164250 | 51 | 294 | 8.0 | 14.0 | 0.00 | 0.06 | 0.06 | 79 | 1008.3 |
| 20260505163748 | 51 | 225 | 1.0 | 10.0 | 0.00 | 0.06 | 0.06 | 83 | 1008.2 |
| 20260505163247 | 51 | 213 | 13.0 | 17.0 | 0.00 | 0.06 | 0.06 | 83 | 1008.6 |
| 20260505162744 | 51 | 294 | 5.0 | 7.0 | 0.00 | 0.06 | 0.06 | 84 | 1008.6 |
| 20260505162241 | 51 | 258 | 2.0 | 3.0 | 0.00 | 0.06 | 0.06 | 87 | 1008.6 |
| 20260505161738 | 51 | 225 | 1.0 | 9.0 | 0.00 | 0.06 | 0.06 | 87 | 1008.5 |
| 20260505161236 | 51 | 229 | 0.0 | 2.0 | 0.00 | 0.06 | 0.06 | 86 | 1008.6 |
| 20260505160733 | 51 | 236 | 3.0 | 12.0 | 0.05 | 0.06 | 0.06 | 85 | 1008.5 |
| 20260505160231 | 51 | 231 | 2.0 | 5.0 | 0.05 | 0.06 | 0.06 | 84 | 1008.4 |